DW9396 Weather Reports


Display with metric or nautical units.
time (UTC)temp
F
wind
direction
speed
MPH
gust
MPH
rain 1hr
in
rain 24hr
in
rain mn
in
humidity
%
barometer
mb
20260831171518 80 320 0.0 3.0 0.00 0.00 0.00 39 1009.1
20260831170015 79 167 0.0 1.0 0.00 0.00 0.00 42 1009.1
20260831164511 78 163 0.0 1.0 0.00 0.00 0.00 43 1009.1
20260831163013 76 139 0.0 1.0 0.00 0.00 0.00 50 1009.0
20260831161515 74 139 0.0 0.0 0.00 0.00 0.00 51 1009.1
20260831160003 70 139 0.0 1.0 0.00 0.00 0.00 54 1009.2
20260831154606 67 139 0.0 2.0 0.00 0.00 0.00 57 1009.3
20260831153052 65 139 0.0 1.0 0.00 0.00 0.00 59 1009.4
20260831151550 61 138 1.0 2.0 0.00 0.00 0.00 64 1009.4
20260831150047 58 134 0.0 3.0 0.00 0.00 0.00 68 1009.2
20260831144547 57 132 0.0 3.0 0.00 0.00 0.00 69 1009.2
20260831143053 56 127 0.0 4.0 0.00 0.00 0.00 70 1009.1
20260831141548 55 141 0.0 2.0 0.00 0.00 0.00 71 1009.1
20260831140046 55 148 1.0 4.0 0.00 0.00 0.00 71 1009.1
20260831134546 55 135 0.0 3.0 0.00 0.00 0.00 71 1009.0
20260831133045 55 162 0.0 2.0 0.00 0.00 0.00 70 1008.9
20260831131550 55 135 0.0 2.0 0.00 0.00 0.00 70 1008.9
20260831130042 55 141 1.0 3.0 0.00 0.00 0.00 70 1008.8
20260831124543 56 132 0.0 2.0 0.00 0.00 0.00 69 1008.9
20260831123041 55 148 0.0 3.0 0.00 0.00 0.00 70 1008.9
20260831121541 56 160 0.0 3.0 0.00 0.00 0.00 70 1008.8
20260831120040 56 129 0.0 2.0 0.00 0.00 0.00 70 1008.8
20260831114538 56 136 0.0 3.0 0.00 0.00 0.00 70 1008.9
20260831113037 56 123 0.0 3.0 0.00 0.00 0.00 69 1009.0
20260831111535 56 162 0.0 2.0 0.00 0.00 0.00 69 1009.0
20260831110038 56 127 0.0 3.0 0.00 0.00 0.00 69 1008.9
20260831104538 57 138 1.0 4.0 0.00 0.00 0.00 69 1008.9
20260831103032 56 123 0.0 3.0 0.00 0.00 0.00 69 1008.8
20260831101534 57 145 1.0 3.0 0.00 0.00 0.00 68 1008.9
20260831100029 57 143 1.0 3.0 0.00 0.00 0.00 68 1008.8
20260831094528 57 138 1.0 3.0 0.00 0.00 0.00 68 1008.8
20260831093026 57 142 0.0 3.0 0.00 0.00 0.00 68 1008.7
20260831091525 57 142 1.0 3.0 0.00 0.00 0.00 68 1008.7
20260831090026 57 149 0.0 3.0 0.00 0.00 0.00 68 1008.8
20260831084520 58 141 0.0 2.0 0.00 0.00 0.00 66 1008.8
20260831083034 59 158 0.0 3.0 0.00 0.00 0.00 66 1008.9
20260831081516 59 148 0.0 4.0 0.00 0.00 0.00 66 1009.1
20260831080016 59 228 0.0 4.0 0.00 0.00 0.00 65 1009.2
20260831074512 59 195 0.0 4.0 0.00 0.00 0.00 65 1009.3
20260831073015 59 195 1.0 4.0 0.00 0.00 0.00 65 1009.2
20260831071510 59 195 1.0 3.0 0.00 0.00 0.00 65 1009.2
20260831070021 59 138 1.0 3.0 0.00 0.00 0.00 66 1009.2
20260831064508 59 132 1.0 4.0 0.00 0.00 0.00 65 1009.2
20260831063010 59 132 0.0 3.0 0.00 0.00 0.00 65 1009.2
20260831061511 60 146 0.0 3.0 0.00 0.00 0.00 64 1009.3
20260831060011 60 134 1.0 3.0 0.00 0.00 0.00 64 1009.3
20260831054510 60 160 1.0 3.0 0.00 0.00 0.00 64 1009.4
20260831053010 61 127 1.0 3.0 0.00 0.00 0.00 63 1009.4
20260831051509 62 149 1.0 3.0 0.00 0.00 0.00 62 1009.6
20260831050008 62 131 0.0 2.0 0.00 0.00 0.00 61 1009.6
20260831044507 63 124 1.0 3.0 0.00 0.00 0.00 60 1009.6
20260831043006 64 148 1.0 3.0 0.00 0.00 0.00 59 1009.6
20260831041509 64 138 0.0 3.0 0.00 0.00 0.00 58 1009.4
20260831040007 65 130 0.0 2.0 0.00 0.00 0.00 57 1009.3
20260831034505 66 129 0.0 2.0 0.00 0.00 0.00 55 1009.2
20260831033006 67 51 0.0 1.0 0.00 0.00 0.00 53 1009.1
20260831031507 68 51 0.0 1.0 0.00 0.00 0.00 50 1009.1
20260831030003 69 22 0.0 1.0 0.00 0.00 0.00 48 1009.0
20260831024506 71 22 0.0 0.0 0.00 0.00 0.00 43 1008.9
20260831023002 72 22 0.0 0.0 0.00 0.00 0.00 42 1008.8
20260831021600 73 22 0.0 1.0 0.00 0.00 0.00 42 1008.8
20260831021503 74 22 0.0 1.0 0.00 0.00 0.00 42 1008.8
20260831020100 75 22 0.0 0.0 0.00 0.00 0.00 42 1008.7
20260831014557 76 23 0.0 1.0 0.00 0.00 0.00 41 1008.6
20260831013109 77 8 0.0 1.0 0.00 0.00 0.00 39 1008.7
20260831011559 79 8 0.0 1.0 0.00 0.00 0.00 39 1008.8
20260831010120 80 354 0.0 0.0 0.00 0.00 0.00 36 1008.9
20260831004558 80 354 0.0 2.0 0.00 0.00 0.00 36 1008.9
20260831003058 79 30 0.0 3.0 0.00 0.00 0.00 37 1008.8
20260831001600 80 328 1.0 3.0 0.00 0.00 0.00 35 1008.9
20260831000110 81 12 0.0 4.0 0.00 0.00 0.00 35 1009.0
20260830234553 82 10 1.0 3.0 0.00 0.00 0.00 34 1009.0
20260830233053 82 309 0.0 2.0 0.00 0.00 0.00 34 1009.0
20260830231556 83 281 2.0 5.0 0.00 0.00 0.00 34 1009.0
20260830230055 83 248 0.0 5.0 0.00 0.00 0.00 33 1009.2
20260830224549 84 356 1.0 3.0 0.00 0.00 0.00 31 1009.3
20260830223119 85 360 1.0 6.0 0.00 0.00 0.00 31 1009.3
20260830221553 85 281 1.0 4.0 0.00 0.00 0.00 31 1009.6
20260830220047 86 9 0.0 3.0 0.00 0.00 0.00 32 1009.7
20260830214546 86 359 0.0 4.0 0.00 0.00 0.00 30 1009.8
20260830213046 86 8 1.0 6.0 0.00 0.00 0.00 31 1009.9
20260830211544 86 314 0.0 2.0 0.00 0.00 0.00 30 1010.0
20260830210044 87 314 1.0 4.0 0.00 0.00 0.00 30 1009.9
20260830204543 87 262 1.0 3.0 0.00 0.00 0.00 30 1010.0
20260830203043 86 89 0.0 5.0 0.00 0.00 0.00 31 1010.0
20260830201546 87 328 1.0 4.0 0.00 0.00 0.00 31 1009.9
20260830200043 87 31 1.0 3.0 0.00 0.00 0.00 30 1010.0
20260830194552 88 333 0.0 2.0 0.00 0.00 0.00 30 1010.1
20260830193050 87 318 0.0 2.0 0.00 0.00 0.00 32 1010.1
20260830191538 87 293 1.0 3.0 0.00 0.00 0.00 31 1010.2
20260830190038 87 332 0.0 3.0 0.00 0.00 0.00 32 1010.3
20260830184538 86 340 0.0 3.0 0.00 0.00 0.00 32 1010.5
20260830183035 87 359 0.0 2.0 0.00 0.00 0.00 33 1010.5
20260830181534 86 115 0.0 2.0 0.00 0.00 0.00 32 1010.6
20260830180031 85 273 1.0 3.0 0.00 0.00 0.00 34 1010.5
20260830174536 84 297 0.0 2.0 0.00 0.00 0.00 34 1010.6
20260830173024 82 316 0.0 2.0 0.00 0.00 0.00 36 1010.5